Location: Woodstock
(35.2731°N, 89.9823°W)
Time: 16:57:16
(UTC+00:00)

Vanguard 3 - Pass Details

Date: 21 May 2025
Orbit: 508 x 3215 km, 33.3° (Epoch: 14 June)

Event Time Altitude Azimuth Distance (km) Brightness Sun altitude
Rises 14:17:43 0° 272° (W) 2,710 9.4 40.0°
Reaches altitude 10° 14:20:13 10° 259° (W) 1,728 8.5 40.5°
Maximum altitude 14:23:21 26° 201° (SSW) 1,033 7.8 41.1°
Drops below altitude 10° 14:26:39 10° 143° (SE) 1,838 9.6 41.8°
Sets 14:29:25 0° 130° (SE) 2,929 10.6 42.4°
